Precipitable_Water
0.29 0.24 0.24 0.25 0.28 0.32 0.36 0.38 0.38 0.37 0.39 0.49 0.53 0.52 0.53 0.53 0.55 0.61 0.65 0.71 0.78 0.70 0.64 0.64 0.65 0.66 0.70 0.77 0.86 0.95 1.02 1.00 0.99 0.96 0.93 0.92 0.93 0.94 0.93 0.90 0.89 0.85 0.81 0.91 0.99 1.02 1.06 1.10 1.16 1.21 1.25 1.27 1.30 1.32 1.32 1.32 1.32 1.33 1.31 1.31 1.30 1.41 1.47 1.45 1.42 1.41 1.38 1.33 1.34 1.37 1.35 1.31 1.38 1.40 1.45 1.48 1.53 1.58 1.56 1.55 1.70 1.68 1.57 1.53 1.54 1.47
0.27 0.22 0.23 0.28 0.31 0.33 0.37 0.40 0.39 0.38 0.39 0.40 0.45 0.48 0.50 0.54 0.51 0.63 0.65 0.73 0.80 0.67 0.62 0.69 0.66 0.65 0.71 0.81 0.88 0.96 0.97 0.90 0.91 0.93 0.91 0.91 0.94 0.95 0.94 0.92 0.91 0.90 0.96 0.99 0.98 1.02 1.05 1.08 1.13 1.18 1.22 1.24 1.20 1.24 1.29 1.27 1.29 1.32 1.33 1.30 1.31 1.38 1.40 1.41 1.42 1.42 1.40 1.38 1.33 1.29 1.29 1.33 1.36 1.37 1.37 1.38 1.45 1.45 1.47 1.48 1.49 1.47 1.45 1.42 1.36 1.30
0.20 0.20 0.24 0.29 0.33 0.34 0.37 0.40 0.39 0.37 0.37 0.40 0.40 0.42 0.43 0.46 0.52 0.61 0.65 0.69 0.77 0.71 0.62 0.67 0.61 0.65 0.75 0.83 0.91 0.90 0.87 0.88 0.93 0.94 0.90 0.90 0.93 0.95 0.96 0.94 0.95 0.97 0.95 0.98 0.98 1.00 1.01 1.04 1.08 1.11 1.15 1.18 1.21 1.23 1.23 1.28 1.30 1.30 1.30 1.31 1.32 1.35 1.36 1.38 1.42 1.41 1.35 1.37 1.38 1.34 1.34 1.35 1.35 1.45 1.46 1.43 1.45 1.50 1.43 1.39 1.37 1.35 1.33 1.29 1.21 1.16
0.15 0.19 0.26 0.30 0.32 0.32 0.34 0.38 0.38 0.38 0.38 0.37 0.38 0.37 0.38 0.45 0.44 0.43 0.55 0.65 0.72 0.69 0.62 0.66 0.62 0.65 0.77 0.87 0.89 0.95 0.93 0.93 1.00 1.01 1.01 1.01 0.94 0.92 0.92 0.94 0.95 0.97 0.96 0.95 0.97 0.97 0.99 1.01 1.03 1.06 1.08 1.11 1.16 1.18 1.22 1.25 1.25 1.27 1.28 1.30 1.31 1.32 1.35 1.36 1.39 1.39 1.39 1.38 1.40 1.42 1.40 1.41 1.38 1.33 1.40 1.39 1.38 1.34 1.30 1.24 1.29 1.27 1.24 1.22 1.14 1.08
0.15 0.21 0.28 0.29 0.30 0.31 0.32 0.36 0.36 0.34 0.32 0.36 0.38 0.38 0.39 0.43 0.46 0.47 0.51 0.61 0.69 0.73 0.73 0.68 0.62 0.62 0.69 0.71 0.78 0.90 1.00 0.99 1.00 1.01 1.02 1.04 1.04 1.03 1.06 1.08 1.08 1.02 1.01 1.00 1.01 1.02 1.01 0.99 0.99 1.00 1.04 1.11 1.09 1.11 1.15 1.20 1.22 1.22 1.22 1.26 1.29 1.30 1.31 1.35 1.37 1.36 1.37 1.38 1.36 1.37 1.38 1.39 1.34 1.32 1.26 1.21 1.16 1.19 1.20 1.18 1.15 1.14 1.19 1.17 1.10 1.06
0.16 0.22 0.28 0.27 0.28 0.29 0.31 0.33 0.34 0.32 0.30 0.33 0.39 0.40 0.42 0.45 0.45 0.48 0.55 0.56 0.55 0.55 0.67 0.62 0.48 0.47 0.62 0.68 0.70 0.82 0.90 0.89 0.97 0.94 0.94 0.98 1.01 1.03 1.03 1.04 1.08 1.08 1.11 1.07 1.05 1.04 1.04 1.02 1.03 1.05 1.08 1.07 1.07 1.08 1.14 1.20 1.22 1.22 1.22 1.26 1.27 1.30 1.32 1.32 1.33 1.35 1.34 1.30 1.25 1.20 1.12 1.06 1.05 1.01 1.01 0.93 0.92 0.98 0.99 0.99 1.10 1.17 1.20 1.21 1.18 1.16
0.16 0.22 0.26 0.27 0.27 0.28 0.30 0.32 0.35 0.33 0.29 0.31 0.34 0.44 0.46 0.47 0.47 0.47 0.50 0.51 0.46 0.42 0.57 0.69 0.46 0.40 0.59 0.59 0.66 0.76 0.80 0.82 0.91 0.89 0.91 0.96 0.99 1.01 1.01 1.03 1.04 1.04 1.05 1.11 1.14 1.15 1.12 1.09 1.06 1.06 1.06 1.06 1.05 1.08 1.17 1.22 1.23 1.23 1.23 1.25 1.26 1.26 1.27 1.31 1.31 1.33 1.31 1.25 1.22 1.15 1.08 1.06 1.01 0.94 0.98 1.07 1.11 1.08 1.10 1.15 1.13 1.16 1.24 1.29 1.26 1.25
0.18 0.18 0.23 0.27 0.27 0.27 0.29 0.29 0.33 0.33 0.30 0.29 0.41 0.46 0.48 0.47 0.46 0.46 0.48 0.47 0.46 0.55 0.64 0.67 0.60 0.45 0.43 0.51 0.67 0.74 0.73 0.76 0.79 0.83 0.87 0.91 0.94 0.98 1.01 1.03 1.05 1.06 1.05 1.05 1.07 1.12 1.15 1.14 1.08 1.04 1.08 1.11 1.10 1.15 1.19 1.19 1.22 1.20 1.21 1.24 1.25 1.26 1.27 1.28 1.30 1.30 1.29 1.20 1.17 1.13 1.10 1.08 1.02 0.98 0.97 1.04 1.07 1.12 1.11 1.11 1.15 1.19 1.22 1.28 1.30 1.24
0.17 0.17 0.20 0.23 0.27 0.27 0.27 0.31 0.34 0.34 0.29 0.31 0.42 0.47 0.46 0.47 0.47 0.48 0.48 0.46 0.47 0.47 0.45 0.55 0.62 0.49 0.42 0.49 0.65 0.70 0.62 0.66 0.68 0.74 0.78 0.83 0.89 0.93 0.98 1.02 1.05 1.09 1.09 1.08 1.07 1.10 1.13 1.14 1.13 1.15 1.15 1.20 1.25 1.24 1.20 1.20 1.22 1.24 1.24 1.25 1.27 1.25 1.24 1.26 1.29 1.27 1.25 1.22 1.18 1.15 1.12 1.05 1.06 1.08 1.08 1.12 1.13 1.09 1.10 1.07 1.16 1.20 1.24 1.27 1.24 1.17
0.19 0.18 0.20 0.23 0.26 0.26 0.30 0.34 0.36 0.34 0.29 0.35 0.44 0.47 0.47 0.46 0.46 0.47 0.45 0.43 0.44 0.41 0.35 0.44 0.55 0.44 0.38 0.48 0.53 0.64 0.60 0.57 0.59 0.65 0.70 0.77 0.84 0.88 0.93 0.99 1.04 1.09 1.12 1.15 1.13 1.12 1.12 1.15 1.18 1.22 1.27 1.31 1.29 1.29 1.30 1.30 1.30 1.28 1.26 1.24 1.26 1.22 1.23 1.25 1.26 1.26 1.23 1.23 1.22 1.17 1.14 1.07 1.05 1.08 1.09 1.10 1.08 1.07 1.08 1.06 1.11 1.16 1.15 1.15 1.12 1.11
0.22 0.25 0.24 0.23 0.24 0.29 0.33 0.35 0.36 0.35 0.34 0.40 0.44 0.43 0.43 0.43 0.42 0.45 0.44 0.41 0.39 0.32 0.34 0.41 0.49 0.46 0.33 0.40 0.44 0.46 0.47 0.51 0.57 0.62 0.68 0.75 0.81 0.86 0.90 0.94 0.99 1.03 1.08 1.12 1.16 1.17 1.15 1.18 1.21 1.27 1.24 1.26 1.33 1.34 1.34 1.33 1.32 1.32 1.29 1.26 1.23 1.22 1.23 1.24 1.24 1.24 1.20 1.23 1.22 1.18 1.15 1.10 1.05 1.05 1.05 1.00 0.98 1.00 1.01 1.00 1.03 1.04 1.05 1.07 1.05 1.05
0.21 0.23 0.24 0.26 0.27 0.30 0.35 0.33 0.37 0.36 0.36 0.38 0.38 0.39 0.39 0.37 0.40 0.38 0.37 0.40 0.30 0.27 0.33 0.38 0.41 0.44 0.29 0.31 0.43 0.49 0.52 0.53 0.53 0.53 0.57 0.63 0.68 0.73 0.81 0.88 0.94 1.00 1.05 1.11 1.15 1.17 1.19 1.20 1.22 1.26 1.25 1.27 1.29 1.32 1.32 1.32 1.34 1.33 1.32 1.30 1.24 1.24 1.23 1.24 1.24 1.24 1.22 1.23 1.22 1.20 1.17 1.12 1.11 1.07 1.01 0.95 0.90 0.90 0.91 0.96 0.98 1.03 1.04 1.04 1.06 1.06
0.18 0.19 0.25 0.26 0.30 0.28 0.31 0.31 0.32 0.34 0.34 0.35 0.37 0.37 0.33 0.29 0.30 0.26 0.31 0.28 0.28 0.25 0.31 0.35 0.41 0.41 0.35 0.36 0.39 0.44 0.49 0.54 0.58 0.58 0.54 0.54 0.57 0.66 0.76 0.84 0.91 0.98 1.03 1.07 1.11 1.15 1.18 1.16 1.16 1.18 1.21 1.24 1.26 1.27 1.29 1.31 1.33 1.34 1.34 1.32 1.24 1.20 1.24 1.23 1.24 1.20 1.21 1.22 1.20 1.16 1.14 1.13 1.15 1.14 1.07 0.99 0.90 0.90 0.89 0.92 0.95 1.00 1.01 1.03 1.01 1.03
0.17 0.20 0.21 0.25 0.26 0.28 0.29 0.27 0.27 0.27 0.30 0.32 0.34 0.34 0.30 0.25 0.24 0.22 0.26 0.29 0.30 0.33 0.37 0.35 0.43 0.33 0.37 0.42 0.47 0.46 0.50 0.54 0.57 0.58 0.56 0.56 0.58 0.66 0.75 0.82 0.88 0.94 0.99 1.03 1.07 1.10 1.12 1.13 1.14 1.19 1.21 1.22 1.24 1.27 1.29 1.32 1.33 1.33 1.33 1.33 1.26 1.18 1.23 1.23 1.23 1.21 1.19 1.20 1.19 1.16 1.13 1.13 1.15 1.14 1.15 1.10 0.98 0.92 0.90 0.91 0.92 0.94 0.97 0.98 0.98 1.00
0.13 0.13 0.17 0.20 0.20 0.26 0.27 0.28 0.28 0.29 0.28 0.30 0.36 0.34 0.30 0.28 0.24 0.20 0.23 0.22 0.25 0.27 0.33 0.40 0.34 0.30 0.29 0.30 0.39 0.40 0.45 0.50 0.55 0.58 0.60 0.64 0.68 0.73 0.79 0.85 0.89 0.91 0.95 1.00 1.03 1.05 1.06 1.10 1.15 1.19 1.25 1.27 1.26 1.27 1.29 1.32 1.33 1.34 1.32 1.31 1.24 1.16 1.19 1.20 1.20 1.20 1.19 1.19 1.19 1.17 1.15 1.15 1.16 1.13 1.13 1.13 1.07 1.00 0.96 0.96 0.94 0.94 0.98 0.98 1.02 1.01
0.14 0.13 0.16 0.20 0.21 0.24 0.24 0.28 0.31 0.30 0.30 0.32 0.34 0.35 0.30 0.27 0.32 0.25 0.27 0.27 0.28 0.28 0.28 0.33 0.30 0.38 0.31 0.40 0.44 0.46 0.49 0.51 0.54 0.58 0.61 0.61 0.64 0.70 0.74 0.78 0.81 0.87 0.93 0.98 0.98 1.01 1.05 1.12 1.18 1.21 1.25 1.28 1.30 1.30 1.30 1.30 1.32 1.32 1.30 1.30 1.25 1.17 1.17 1.18 1.18 1.18 1.19 1.20 1.21 1.18 1.15 1.15 1.16 1.16 1.16 1.14 1.12 1.10 1.07 1.02 0.98 0.95 0.96 0.98 1.00 1.02
0.15 0.12 0.16 0.19 0.20 0.21 0.24 0.27 0.28 0.31 0.23 0.28 0.31 0.27 0.27 0.34 0.33 0.31 0.31 0.35 0.32 0.29 0.25 0.35 0.33 0.36 0.43 0.42 0.43 0.45 0.46 0.46 0.49 0.52 0.54 0.55 0.61 0.66 0.67 0.72 0.77 0.82 0.88 0.94 0.96 0.99 1.03 1.11 1.18 1.22 1.25 1.28 1.30 1.30 1.29 1.27 1.29 1.29 1.31 1.33 1.29 1.24 1.22 1.18 1.16 1.16 1.19 1.21 1.20 1.19 1.19 1.18 1.18 1.19 1.16 1.12 1.09 1.09 1.10 1.07 1.02 0.99 0.98 0.99 1.00 1.04
0.14 0.13 0.16 0.15 0.15 0.18 0.22 0.26 0.27 0.29 0.31 0.29 0.25 0.27 0.34 0.39 0.38 0.31 0.25 0.29 0.28 0.23 0.24 0.30 0.26 0.28 0.30 0.25 0.38 0.40 0.39 0.39 0.42 0.46 0.50 0.54 0.62 0.62 0.63 0.67 0.72 0.77 0.84 0.91 0.96 1.01 1.05 1.08 1.13 1.19 1.25 1.28 1.27 1.27 1.29 1.30 1.33 1.38 1.42 1.42 1.36 1.30 1.22 1.19 1.18 1.16 1.18 1.20 1.21 1.22 1.22 1.23 1.24 1.24 1.24 1.22 1.17 1.15 1.10 1.05 1.03 1.03 1.02 1.01 1.04 1.08
0.20 0.13 0.16 0.18 0.15 0.16 0.18 0.20 0.22 0.26 0.29 0.26 0.25 0.32 0.27 0.25 0.26 0.31 0.28 0.23 0.23 0.22 0.23 0.27 0.28 0.28 0.29 0.27 0.32 0.32 0.35 0.36 0.39 0.44 0.49 0.52 0.54 0.56 0.60 0.65 0.70 0.77 0.84 0.89 0.93 0.99 1.04 1.07 1.11 1.17 1.20 1.26 1.30 1.31 1.31 1.36 1.42 1.45 1.47 1.50 1.48 1.37 1.29 1.26 1.26 1.24 1.24 1.25 1.26 1.27 1.26 1.26 1.27 1.31 1.31 1.27 1.24 1.22 1.16 1.09 1.05 1.02 1.03 1.06 1.09 1.11
0.26 0.16 0.14 0.20 0.18 0.16 0.16 0.15 0.13 0.17 0.23 0.26 0.28 0.29 0.34 0.31 0.28 0.27 0.28 0.29 0.28 0.23 0.23 0.22 0.27 0.23 0.30 0.30 0.31 0.31 0.35 0.38 0.41 0.44 0.46 0.49 0.50 0.53 0.58 0.62 0.66 0.73 0.79 0.85 0.91 0.95 0.99 1.03 1.08 1.13 1.17 1.22 1.25 1.27 1.33 1.38 1.44 1.46 1.50 1.53 1.54 1.53 1.44 1.37 1.30 1.28 1.26 1.31 1.34 1.33 1.31 1.29 1.31 1.31 1.28 1.25 1.25 1.25 1.19 1.13 1.11 1.09 1.06 1.06 1.12 1.14
0.28 0.25 0.14 0.18 0.22 0.20 0.13 0.14 0.11 0.13 0.16 0.19 0.22 0.23 0.26 0.27 0.33 0.32 0.33 0.30 0.27 0.26 0.24 0.22 0.22 0.25 0.30 0.34 0.33 0.33 0.37 0.41 0.41 0.42 0.45 0.47 0.49 0.51 0.55 0.61 0.67 0.73 0.77 0.83 0.88 0.91 0.95 1.00 1.06 1.13 1.19 1.23 1.28 1.34 1.39 1.43 1.43 1.44 1.49 1.50 1.52 1.48 1.43 1.36 1.33 1.31 1.29 1.31 1.31 1.30 1.28 1.30 1.34 1.37 1.36 1.28 1.28 1.22 1.18 1.18 1.16 1.13 1.10 1.11 1.14 1.17
0.29 0.26 0.17 0.16 0.18 0.18 0.16 0.16 0.14 0.13 0.17 0.18 0.19 0.21 0.24 0.23 0.23 0.22 0.22 0.31 0.30 0.27 0.24 0.22 0.20 0.26 0.31 0.38 0.36 0.35 0.37 0.38 0.41 0.41 0.42 0.45 0.47 0.49 0.55 0.62 0.68 0.72 0.78 0.82 0.86 0.88 0.91 0.97 1.03 1.11 1.21 1.27 1.29 1.31 1.31 1.35 1.40 1.44 1.45 1.45 1.47 1.50 1.48 1.39 1.35 1.31 1.30 1.32 1.32 1.30 1.28 1.27 1.32 1.36 1.33 1.24 1.24 1.19 1.22 1.23 1.21 1.16 1.14 1.13 1.16 1.19
0.33 0.30 0.24 0.17 0.17 0.17 0.18 0.21 0.21 0.18 0.17 0.19 0.21 0.22 0.25 0.25 0.26 0.25 0.20 0.23 0.28 0.28 0.30 0.27 0.22 0.23 0.32 0.36 0.36 0.35 0.38 0.41 0.42 0.43 0.41 0.44 0.48 0.51 0.55 0.62 0.69 0.73 0.76 0.80 0.82 0.85 0.89 0.93 0.98 1.06 1.11 1.15 1.17 1.18 1.20 1.25 1.29 1.32 1.34 1.38 1.41 1.41 1.42 1.43 1.38 1.37 1.35 1.31 1.27 1.25 1.26 1.28 1.32 1.34 1.31 1.24 1.19 1.14 1.17 1.25 1.26 1.22 1.18 1.18 1.18 1.22
0.38 0.28 0.24 0.22 0.20 0.21 0.23 0.24 0.25 0.24 0.21 0.18 0.20 0.24 0.25 0.22 0.24 0.26 0.25 0.25 0.25 0.27 0.25 0.24 0.21 0.23 0.31 0.36 0.37 0.39 0.41 0.43 0.46 0.46 0.43 0.44 0.49 0.55 0.59 0.62 0.66 0.72 0.77 0.80 0.82 0.85 0.88 0.91 0.98 1.03 1.06 1.12 1.14 1.16 1.18 1.21 1.23 1.26 1.30 1.33 1.36 1.37 1.41 1.46 1.46 1.45 1.41 1.33 1.25 1.25 1.29 1.30 1.30 1.32 1.30 1.20 1.16 1.18 1.19 1.26 1.34 1.30 1.22 1.21 1.22 1.22
0.30 0.30 0.26 0.21 0.17 0.16 0.19 0.22 0.21 0.24 0.23 0.19 0.19 0.21 0.24 0.24 0.24 0.27 0.27 0.30 0.25 0.25 0.25 0.23 0.19 0.22 0.30 0.37 0.38 0.39 0.40 0.38 0.39 0.43 0.45 0.43 0.48 0.53 0.58 0.63 0.68 0.71 0.74 0.75 0.77 0.80 0.85 0.89 0.92 0.94 0.99 1.03 1.07 1.13 1.16 1.18 1.20 1.22 1.28 1.34 1.36 1.37 1.45 1.51 1.55 1.51 1.45 1.36 1.28 1.29 1.31 1.33 1.35 1.35 1.34 1.29 1.23 1.23 1.21 1.27 1.35 1.37 1.29 1.26 1.24 1.30
0.32 0.30 0.26 0.20 0.16 0.12 0.11 0.12 0.13 0.14 0.17 0.20 0.21 0.22 0.24 0.23 0.23 0.24 0.24 0.25 0.22 0.25 0.26 0.22 0.20 0.25 0.30 0.33 0.33 0.36 0.38 0.36 0.40 0.42 0.46 0.48 0.49 0.53 0.58 0.64 0.68 0.70 0.70 0.72 0.75 0.78 0.79 0.83 0.88 0.92 0.97 0.99 1.04 1.07 1.09 1.14 1.18 1.22 1.28 1.33 1.39 1.42 1.49 1.55 1.58 1.56 1.49 1.44 1.40 1.36 1.36 1.39 1.39 1.34 1.32 1.34 1.33 1.30 1.28 1.37 1.35 1.36 1.39 1.31 1.28 1.34
0.34 0.32 0.29 0.25 0.20 0.15 0.14 0.15 0.19 0.19 0.19 0.17 0.18 0.19 0.21 0.23 0.23 0.25 0.26 0.24 0.22 0.23 0.22 0.23 0.23 0.24 0.25 0.27 0.28 0.30 0.33 0.33 0.37 0.42 0.43 0.44 0.48 0.54 0.62 0.65 0.66 0.66 0.68 0.70 0.72 0.76 0.81 0.84 0.84 0.89 0.92 0.95 1.00 1.02 1.05 1.08 1.14 1.19 1.25 1.29 1.36 1.43 1.48 1.52 1.54 1.54 1.51 1.49 1.46 1.43 1.43 1.43 1.42 1.39 1.34 1.36 1.37 1.30 1.35 1.40 1.40 1.39 1.42 1.39 1.34 1.36
0.35 0.30 0.30 0.29 0.25 0.22 0.18 0.15 0.19 0.20 0.17 0.18 0.18 0.18 0.20 0.21 0.22 0.23 0.24 0.21 0.25 0.24 0.21 0.24 0.25 0.22 0.23 0.25 0.27 0.31 0.34 0.36 0.39 0.41 0.43 0.46 0.49 0.53 0.55 0.60 0.65 0.67 0.71 0.74 0.75 0.76 0.75 0.77 0.81 0.82 0.85 0.90 0.94 0.98 1.04 1.11 1.14 1.17 1.20 1.23 1.31 1.44 1.48 1.50 1.51 1.49 1.46 1.44 1.40 1.39 1.42 1.45 1.45 1.45 1.44 1.43 1.37 1.35 1.38 1.40 1.40 1.43 1.50 1.46 1.35 1.36
0.34 0.29 0.30 0.30 0.28 0.27 0.25 0.20 0.19 0.20 0.20 0.21 0.21 0.21 0.21 0.22 0.24 0.24 0.24 0.26 0.27 0.23 0.20 0.22 0.25 0.23 0.23 0.25 0.29 0.33 0.36 0.38 0.40 0.42 0.45 0.48 0.51 0.56 0.59 0.59 0.60 0.61 0.66 0.68 0.70 0.73 0.75 0.77 0.77 0.78 0.82 0.87 0.92 0.96 1.01 1.07 1.13 1.18 1.22 1.26 1.33 1.41 1.43 1.48 1.49 1.48 1.46 1.44 1.42 1.44 1.50 1.55 1.56 1.59 1.63 1.58 1.49 1.47 1.50 1.47 1.44 1.45 1.49 1.42 1.36 1.38
0.36 0.30 0.31 0.31 0.28 0.28 0.27 0.26 0.24 0.21 0.21 0.21 0.22 0.23 0.25 0.26 0.27 0.27 0.27 0.28 0.28 0.25 0.25 0.24 0.25 0.24 0.25 0.28 0.32 0.35 0.39 0.41 0.43 0.47 0.51 0.52 0.51 0.54 0.55 0.56 0.58 0.61 0.64 0.66 0.69 0.72 0.76 0.78 0.79 0.80 0.85 0.89 0.92 0.97 1.01 1.07 1.12 1.16 1.20 1.27 1.37 1.42 1.48 1.52 1.49 1.47 1.45 1.41 1.43 1.50 1.57 1.61 1.64 1.69 1.76 1.71 1.60 1.51 1.59 1.61 1.56 1.53 1.50 1.40 1.38 1.42
0.43 0.32 0.33 0.31 0.28 0.27 0.28 0.28 0.27 0.26 0.24 0.22 0.22 0.24 0.25 0.27 0.28 0.29 0.29 0.29 0.30 0.28 0.28 0.27 0.26 0.25 0.30 0.33 0.34 0.39 0.43 0.46 0.46 0.45 0.45 0.47 0.50 0.53 0.53 0.54 0.56 0.60 0.64 0.69 0.72 0.75 0.78 0.82 0.84 0.86 0.87 0.89 0.94 0.96 1.01 1.05 1.11 1.18 1.24 1.30 1.36 1.41 1.48 1.50 1.47 1.45 1.41 1.39 1.45 1.53 1.59 1.62 1.62 1.66 1.68 1.69 1.72 1.68 1.66 1.58 1.56 1.57 1.53 1.44 1.43 1.48
0.47 0.38 0.40 0.35 0.28 0.25 0.28 0.28 0.27 0.27 0.26 0.25 0.24 0.24 0.25 0.26 0.25 0.27 0.27 0.29 0.29 0.27 0.28 0.28 0.26 0.25 0.29 0.35 0.38 0.40 0.42 0.43 0.42 0.44 0.45 0.48 0.52 0.54 0.54 0.53 0.56 0.60 0.65 0.68 0.72 0.76 0.80 0.83 0.86 0.87 0.88 0.92 0.96 1.00 1.03 1.08 1.14 1.18 1.22 1.30 1.34 1.41 1.47 1.47 1.45 1.41 1.40 1.42 1.46 1.49 1.52 1.55 1.57 1.57 1.57 1.61 1.66 1.78 1.69 1.57 1.56 1.54 1.48 1.43 1.42 1.44
0.50 0.45 0.42 0.40 0.32 0.27 0.27 0.28 0.27 0.27 0.26 0.24 0.24 0.25 0.26 0.27 0.27 0.28 0.29 0.31 0.30 0.30 0.28 0.26 0.26 0.29 0.31 0.35 0.35 0.38 0.40 0.41 0.43 0.45 0.45 0.48 0.52 0.54 0.54 0.56 0.60 0.65 0.67 0.70 0.73 0.76 0.79 0.82 0.86 0.90 0.94 0.97 0.99 1.02 1.10 1.15 1.17 1.18 1.23 1.27 1.34 1.42 1.41 1.40 1.40 1.39 1.39 1.40 1.41 1.44 1.47 1.50 1.50 1.50 1.52 1.48 1.59 1.75 1.69 1.62 1.54 1.49 1.44 1.39 1.41 1.39
0.54 0.49 0.45 0.47 0.35 0.32 0.31 0.29 0.29 0.26 0.21 0.21 0.26 0.30 0.29 0.27 0.27 0.27 0.27 0.29 0.32 0.33 0.31 0.32 0.32 0.36 0.38 0.37 0.36 0.38 0.40 0.40 0.42 0.45 0.48 0.47 0.49 0.54 0.59 0.62 0.65 0.67 0.69 0.73 0.76 0.77 0.81 0.87 0.91 0.96 0.99 1.01 1.07 1.10 1.13 1.15 1.12 1.12 1.18 1.21 1.22 1.20 1.21 1.25 1.29 1.31 1.32 1.35 1.37 1.39 1.40 1.39 1.42 1.44 1.47 1.49 1.53 1.81 1.69 1.59 1.54 1.47 1.42 1.37 1.37 1.32
0.54 0.54 0.49 0.49 0.39 0.33 0.34 0.32 0.26 0.21 0.21 0.27 0.34 0.36 0.35 0.32 0.30 0.29 0.30 0.34 0.35 0.37 0.37 0.36 0.35 0.36 0.38 0.38 0.38 0.40 0.43 0.47 0.50 0.50 0.51 0.55 0.58 0.59 0.60 0.64 0.67 0.68 0.69 0.73 0.76 0.81 0.86 0.91 0.95 0.98 0.99 1.00 1.03 1.06 1.06 1.05 1.05 1.04 1.04 1.07 1.06 1.10 1.11 1.14 1.16 1.19 1.22 1.24 1.28 1.31 1.33 1.37 1.41 1.44 1.43 1.45 1.57 1.69 1.66 1.63 1.50 1.40 1.37 1.36 1.37 1.30
0.54 0.52 0.52 0.47 0.44 0.42 0.34 0.31 0.23 0.21 0.29 0.35 0.36 0.38 0.41 0.38 0.36 0.35 0.36 0.39 0.42 0.41 0.40 0.38 0.38 0.40 0.41 0.42 0.45 0.47 0.47 0.50 0.53 0.55 0.58 0.62 0.65 0.64 0.65 0.66 0.69 0.71 0.73 0.77 0.80 0.86 0.90 0.93 0.94 0.93 0.93 0.99 0.99 0.99 0.99 0.97 1.02 1.00 0.99 1.03 1.02 1.05 1.08 1.11 1.13 1.16 1.20 1.22 1.26 1.29 1.35 1.40 1.42 1.42 1.40 1.51 1.59 1.60 1.55 1.53 1.43 1.35 1.35 1.39 1.42 1.35
0.60 0.57 0.53 0.46 0.50 0.37 0.34 0.31 0.29 0.36 0.33 0.35 0.34 0.37 0.39 0.36 0.37 0.34 0.30 0.37 0.46 0.49 0.47 0.43 0.43 0.44 0.44 0.46 0.49 0.50 0.52 0.51 0.49 0.53 0.62 0.65 0.67 0.71 0.73 0.71 0.73 0.76 0.80 0.85 0.90 0.91 0.94 0.95 0.94 0.96 1.00 0.99 0.96 0.96 0.96 1.01 1.01 0.98 0.98 0.99 1.02 1.04 1.07 1.09 1.10 1.13 1.17 1.21 1.27 1.33 1.38 1.40 1.38 1.38 1.42 1.54 1.59 1.55 1.49 1.41 1.36 1.34 1.38 1.40 1.39 1.30
0.68 0.54 0.58 0.48 0.46 0.46 0.37 0.31 0.31 0.29 0.24 0.30 0.39 0.47 0.54 0.54 0.53 0.49 0.42 0.39 0.52 0.55 0.55 0.50 0.48 0.48 0.48 0.51 0.52 0.52 0.52 0.46 0.43 0.47 0.59 0.67 0.71 0.73 0.77 0.82 0.86 0.87 0.88 0.93 0.95 0.96 0.95 0.96 0.99 1.01 0.99 0.97 0.96 0.99 1.02 1.03 1.00 0.98 0.98 1.00 1.04 1.04 1.04 1.04 1.06 1.13 1.19 1.24 1.32 1.36 1.38 1.40 1.38 1.39 1.45 1.51 1.46 1.49 1.40 1.36 1.35 1.37 1.44 1.40 1.33 1.23
0.70 0.65 0.59 0.53 0.49 0.46 0.39 0.32 0.29 0.26 0.28 0.38 0.41 0.49 0.57 0.61 0.58 0.55 0.42 0.37 0.51 0.58 0.59 0.55 0.52 0.52 0.51 0.50 0.53 0.54 0.48 0.42 0.45 0.52 0.65 0.73 0.75 0.78 0.79 0.85 0.87 0.90 0.92 0.91 0.89 0.87 0.91 0.95 0.97 0.99 1.01 1.02 1.00 1.03 1.06 1.05 1.04 1.01 1.00 1.03 1.04 1.05 1.02 1.04 1.11 1.18 1.23 1.29 1.34 1.36 1.38 1.40 1.40 1.41 1.42 1.48 1.49 1.45 1.36 1.33 1.35 1.42 1.47 1.42 1.31 1.17
0.60 0.58 0.55 0.51 0.48 0.49 0.41 0.34 0.31 0.35 0.36 0.42 0.51 0.56 0.58 0.65 0.59 0.45 0.30 0.36 0.52 0.60 0.61 0.57 0.55 0.54 0.56 0.56 0.57 0.53 0.48 0.45 0.49 0.59 0.75 0.83 0.82 0.84 0.83 0.82 0.85 0.88 0.90 0.92 0.96 0.98 1.00 1.02 1.00 0.99 1.02 1.04 1.02 1.05 1.06 1.09 1.07 1.04 1.02 1.04 1.08 1.06 1.06 1.12 1.19 1.26 1.31 1.34 1.35 1.37 1.39 1.40 1.40 1.42 1.42 1.46 1.50 1.47 1.40 1.38 1.39 1.40 1.36 1.28 1.21 1.11
0.55 0.55 0.55 0.49 0.50 0.49 0.44 0.39 0.40 0.42 0.53 0.58 0.57 0.61 0.61 0.63 0.51 0.31 0.27 0.41 0.59 0.62 0.62 0.60 0.57 0.57 0.58 0.55 0.55 0.52 0.60 0.64 0.70 0.78 0.86 0.88 0.83 0.86 0.91 0.93 0.93 0.93 0.91 0.94 0.98 1.04 1.03 1.05 1.06 1.04 1.07 1.07 1.12 1.13 1.15 1.13 1.08 1.05 1.06 1.08 1.08 1.08 1.16 1.25 1.28 1.29 1.31 1.34 1.35 1.36 1.37 1.39 1.40 1.40 1.44 1.50 1.49 1.49 1.40 1.38 1.39 1.36 1.29 1.22 1.19 1.15
0.57 0.57 0.56 0.57 0.52 0.49 0.47 0.40 0.38 0.45 0.57 0.65 0.66 0.63 0.66 0.48 0.31 0.30 0.47 0.66 0.65 0.62 0.64 0.64 0.61 0.64 0.65 0.64 0.63 0.64 0.72 0.81 0.85 0.88 0.88 0.87 0.87 0.93 0.95 0.96 0.97 1.01 1.08 1.10 1.08 1.06 1.02 1.02 1.04 1.07 1.10 1.16 1.17 1.19 1.18 1.15 1.09 1.08 1.10 1.10 1.08 1.18 1.29 1.31 1.30 1.31 1.33 1.33 1.34 1.34 1.36 1.38 1.42 1.46 1.47 1.50 1.48 1.44 1.41 1.46 1.48 1.40 1.34 1.30 1.24 1.18
0.57 0.51 0.50 0.53 0.60 0.57 0.50 0.42 0.39 0.34 0.57 0.74 0.67 0.61 0.65 0.43 0.46 0.60 0.66 0.69 0.71 0.69 0.67 0.68 0.69 0.72 0.74 0.76 0.80 0.81 0.87 0.89 0.88 0.87 0.90 0.92 0.93 0.94 0.97 0.96 0.95 0.97 1.00 1.01 1.01 1.05 1.04 1.03 1.03 1.05 1.09 1.16 1.19 1.21 1.20 1.17 1.12 1.12 1.13 1.12 1.19 1.28 1.31 1.32 1.31 1.31 1.31 1.32 1.32 1.34 1.37 1.41 1.44 1.45 1.47 1.46 1.44 1.41 1.34 1.39 1.42 1.44 1.42 1.38 1.36 1.33
0.72 0.54 0.56 0.59 0.68 0.50 0.47 0.40 0.41 0.59 0.70 0.79 0.69 0.55 0.63 0.65 0.76 0.76 0.74 0.70 0.77 0.75 0.71 0.71 0.74 0.77 0.80 0.81 0.81 0.83 0.86 0.86 0.86 0.85 0.86 0.90 0.92 0.94 0.95 0.96 0.97 0.98 0.97 1.00 1.03 1.04 1.07 1.06 1.05 1.07 1.12 1.16 1.20 1.22 1.22 1.19 1.15 1.16 1.17 1.20 1.30 1.32 1.32 1.29 1.28 1.28 1.28 1.30 1.33 1.36 1.40 1.43 1.44 1.45 1.44 1.44 1.45 1.44 1.37 1.36 1.39 1.41 1.41 1.42 1.41 1.39
0.60 0.58 0.62 0.55 0.73 0.66 0.57 0.62 0.71 0.78 0.81 0.85 0.82 0.79 0.81 0.85 0.87 0.87 0.85 0.82 0.77 0.78 0.84 0.77 0.77 0.80 0.81 0.81 0.82 0.82 0.80 0.83 0.85 0.88 0.86 0.89 0.91 0.93 0.93 0.95 0.97 0.97 0.98 1.00 1.03 1.07 1.09 1.04 1.05 1.09 1.14 1.20 1.24 1.25 1.25 1.25 1.19 1.20 1.18 1.25 1.31 1.30 1.26 1.24 1.24 1.25 1.27 1.30 1.33 1.34 1.38 1.40 1.41 1.42 1.43 1.45 1.53 1.48 1.45 1.39 1.38 1.35 1.39 1.38 1.36 1.36
0.64 0.64 0.76 0.69 0.67 0.82 0.84 0.83 0.88 0.84 0.83 0.85 0.88 0.89 0.87 0.89 0.94 0.92 0.88 0.84 0.89 0.91 0.92 0.86 0.87 0.84 0.84 0.84 0.78 0.81 0.81 0.83 0.83 0.86 0.87 0.88 0.89 0.92 0.95 0.94 0.94 0.97 0.99 1.00 1.00 1.04 1.04 1.06 1.09 1.11 1.10 1.15 1.20 1.22 1.25 1.26 1.27 1.21 1.23 1.28 1.30 1.28 1.25 1.24 1.24 1.25 1.27 1.29 1.31 1.32 1.36 1.36 1.39 1.43 1.47 1.50 1.51 1.47 1.47 1.41 1.36 1.33 1.32 1.31 1.32 1.33
0.67 0.68 0.65 0.60 0.72 0.65 0.62 0.81 0.84 0.82 0.85 0.89 0.89 0.91 0.92 0.93 0.93 0.92 0.87 0.86 0.86 0.89 0.89 0.92 0.92 0.89 0.88 0.86 0.83 0.82 0.82 0.83 0.81 0.82 0.84 0.84 0.82 0.83 0.85 0.87 0.90 0.96 0.96 0.98 1.01 1.07 1.07 1.08 1.08 1.08 1.10 1.09 1.18 1.22 1.25 1.26 1.28 1.28 1.29 1.29 1.30 1.28 1.27 1.26 1.26 1.26 1.28 1.29 1.32 1.34 1.36 1.35 1.38 1.41 1.46 1.49 1.50 1.50 1.47 1.44 1.40 1.34 1.28 1.27 1.28 1.31
0.60 0.80 0.66 0.62 0.64 0.58 0.59 0.80 0.91 0.89 0.89 0.92 0.93 0.89 0.85 0.87 0.89 0.90 0.90 0.88 0.87 0.88 0.88 0.89 0.91 0.89 0.90 0.88 0.89 0.86 0.87 0.89 0.86 0.85 0.86 0.87 0.86 0.87 0.87 0.90 0.93 0.96 1.01 1.05 1.11 1.11 1.10 1.09 1.07 1.09 1.11 1.12 1.17 1.21 1.23 1.24 1.25 1.28 1.31 1.31 1.29 1.28 1.26 1.24 1.24 1.25 1.27 1.30 1.33 1.35 1.37 1.37 1.39 1.40 1.39 1.39 1.39 1.36 1.34 1.34 1.33 1.30 1.29 1.30 1.28 1.24
0.72 0.77 0.60 0.67 0.60 0.67 0.79 0.85 0.86 0.90 0.94 0.94 0.93 0.93 0.91 0.89 0.90 0.91 0.93 0.94 0.93 0.89 0.87 0.90 0.90 0.88 0.87 0.85 0.88 0.85 0.82 0.85 0.88 0.87 0.87 0.88 0.89 0.90 0.91 0.94 0.98 1.00 1.06 1.07 1.11 1.12 1.09 1.09 1.09 1.10 1.10 1.12 1.19 1.21 1.22 1.23 1.26 1.29 1.29 1.29 1.28 1.25 1.21 1.20 1.23 1.25 1.25 1.29 1.31 1.33 1.37 1.39 1.41 1.38 1.35 1.31 1.30 1.29 1.29 1.27 1.24 1.23 1.22 1.21 1.19 1.16
0.73 0.65 0.74 0.69 0.60 0.57 0.59 0.67 0.75 0.65 0.70 0.83 0.91 0.95 0.93 0.93 0.93 0.91 0.93 0.94 0.94 0.94 0.93 0.92 0.92 0.95 0.94 0.94 0.95 0.96 0.93 0.91 0.93 0.93 0.90 0.94 0.95 0.97 0.99 0.99 1.00 1.01 1.05 1.10 1.12 1.11 1.09 1.09 1.08 1.07 1.08 1.11 1.15 1.16 1.17 1.20 1.24 1.28 1.28 1.28 1.26 1.24 1.19 1.19 1.19 1.18 1.19 1.24 1.27 1.31 1.34 1.36 1.39 1.34 1.26 1.21 1.20 1.20 1.20 1.21 1.16 1.08 1.01 1.01 1.08 1.10
0.72 0.75 0.74 0.66 0.61 0.59 0.74 0.82 0.86 0.82 0.80 0.86 0.91 0.94 0.94 0.93 0.91 0.88 0.87 0.88 0.91 0.94 0.96 0.95 0.93 0.94 0.97 0.99 1.04 1.00 0.97 0.95 0.97 0.97 0.94 0.96 0.98 1.03 1.05 1.03 1.02 1.01 1.01 1.06 1.04 1.06 1.06 1.07 1.06 1.05 1.05 1.08 1.13 1.14 1.17 1.19 1.23 1.24 1.26 1.27 1.27 1.26 1.23 1.21 1.18 1.19 1.20 1.21 1.20 1.21 1.22 1.20 1.21 1.22 1.19 1.15 1.11 1.07 0.99 0.91 0.91 0.93 0.96 0.99 1.01 1.02
Wind_Speed
22 21 21 21 20 20 19 18 16 14 11 13 14 14 15 15 15 14 10 9 12 12 11 10 7 7 8 7 7 8 8 7 7 7 8 9 10 10 10 11 11 12 12 11 12 13 13 13 13 13 13 13 13 13 13 13 12 12 11 11 10 10 9 9 9 8 8 8 8 8 8 8 8 8 8 8 8 8 8 8 8 9 8 9 8 7
23 23 23 23 22 21 20 18 16 14 12 12 14 14 14 15 15 14 12 11 12 12 11 9 8 9 9 8 8 8 8 8 8 7 8 10 10 10 11 11 12 11 11 11 12 13 13 13 13 13 13 13 14 13 13 13 13 13 12 12 11 10 10 10 10 9 9 9 9 8 8 8 8 8 8 8 8 8 8 8 8 8 8 8 8 7
23 24 24 24 22 20 19 18 16 15 14 13 13 14 14 14 14 14 14 12 12 12 11 10 10 10 9 9 9 10 10 9 9 9 8 9 10 10 11 12 12 12 12 12 12 13 14 14 14 14 14 14 14 14 14 14 14 13 13 12 12 11 11 10 10 10 9 9 9 8 7 7 7 7 7 7 7 7 7 7 8 8 8 8 8 8
23 23 25 24 22 21 19 18 18 16 15 14 14 14 14 13 12 13 14 13 12 11 11 11 10 10 10 10 11 12 12 10 10 9 9 10 11 11 12 12 12 13 13 13 13 13 14 14 14 14 14 14 14 14 14 14 14 14 13 13 13 12 11 11 10 10 10 9 8 8 7 7 7 7 7 7 7 7 7 7 8 8 8 8 8 8
24 23 25 25 23 23 21 19 19 17 16 16 17 16 15 14 13 12 13 13 12 11 12 10 10 12 12 12 12 12 12 12 11 10 10 11 12 12 11 12 12 14 14 14 14 14 14 15 15 15 15 14 15 15 15 14 14 14 14 14 13 12 12 11 11 10 10 9 8 8 7 7 7 7 7 7 7 7 7 7 7 7 7 8 8 8
25 24 24 25 25 24 22 21 20 19 17 17 18 18 17 16 14 12 12 12 13 14 15 13 10 12 13 14 13 11 12 13 12 12 12 12 13 12 12 12 13 14 14 15 15 14 14 15 15 15 15 15 15 15 15 15 15 14 14 14 13 13 12 11 11 11 10 10 9 8 8 7 7 7 7 7 7 7 7 7 7 7 7 7 8 8
26 25 25 26 26 25 24 23 22 20 18 17 19 20 18 16 14 13 13 13 14 15 16 16 15 13 12 14 14 12 13 14 13 13 13 14 13 13 13 13 13 14 14 15 15 15 14 15 15 15 16 16 16 16 16 15 15 15 15 14 14 13 12 12 12 11 11 10 10 10 9 9 8 8 8 8 8 8 8 8 8 8 8 8 8 9
26 27 26 26 26 26 25 24 23 21 18 18 19 19 18 16 16 16 15 14 14 14 14 16 17 15 14 15 14 13 14 15 15 14 14 14 15 15 15 15 15 15 15 15 16 16 15 16 16 16 16 16 16 16 16 16 15 15 15 15 14 14 13 13 12 12 12 12 11 11 10 10 10 10 9 9 9 9 9 9 9 8 8 9 9 9
26 28 29 28 27 27 26 25 24 22 19 19 19 18 18 17 16 16 16 15 14 14 15 16 16 15 16 17 13 12 14 16 16 16 15 15 15 15 16 16 16 16 16 16 16 16 16 16 17 17 17 17 16 16 16 16 16 15 15 15 15 14 14 14 13 13 13 13 12 12 11 11 11 10 10 10 10 10 10 9 9 9 9 9 9 9
25 27 29 29 28 28 27 25 25 24 21 20 19 17 15 15 15 15 15 14 13 14 16 18 17 15 16 18 15 13 15 16 16 15 14 14 15 16 16 17 17 16 15 16 16 16 16 17 18 18 18 17 17 16 17 17 16 16 16 16 16 15 15 15 14 14 14 14 13 13 13 12 11 11 10 10 10 10 10 9 9 9 9 9 10 10
26 25 27 29 30 29 28 26 26 26 22 20 19 17 15 14 14 14 14 14 13 14 16 18 19 17 16 17 16 15 16 17 15 14 13 13 14 16 17 17 17 16 15 15 16 16 17 18 18 18 18 18 18 17 17 17 17 16 16 16 16 16 16 16 15 15 15 15 15 14 13 13 12 11 11 11 10 10 10 9 9 9 9 10 10 11
28 27 27 29 30 29 28 27 27 26 23 21 19 19 18 16 15 14 14 14 13 14 16 17 18 18 17 16 17 18 18 17 16 15 14 13 14 16 16 17 17 16 16 16 16 16 16 17 18 18 19 18 18 18 18 18 17 17 17 17 17 17 17 17 16 16 16 16 15 15 14 13 12 12 11 11 10 10 10 10 10 10 10 10 11 11
30 30 29 28 29 30 29 28 27 25 24 23 22 20 19 17 16 15 15 15 15 15 15 15 15 16 18 18 18 18 18 17 17 17 16 15 15 16 16 17 17 16 16 16 16 16 16 16 17 18 19 19 18 18 18 18 18 18 18 18 18 18 18 18 17 17 17 16 16 15 14 14 13 12 12 11 11 11 11 11 11 11 11 12 12 12
29 30 31 30 29 30 31 30 29 27 26 26 25 23 21 18 17 17 16 14 15 16 15 14 15 15 16 16 17 18 18 18 18 19 18 16 15 16 17 17 17 16 17 17 17 17 17 17 17 18 19 19 19 19 19 19 19 18 18 18 19 19 19 18 18 18 17 17 17 16 15 14 14 13 13 12 12 12 12 13 13 13 13 13 14 14
29 29 32 33 31 31 32 32 30 28 27 27 26 24 24 22 19 18 17 15 16 15 14 13 14 14 14 14 14 15 16 17 18 18 18 16 14 15 16 17 17 17 17 17 17 17 17 18 18 18 19 19 20 20 20 20 20 19 19 19 19 20 19 19 18 18 18 18 18 17 16 15 15 14 14 14 13 13 13 13 14 14 15 15 15 15
30 31 31 32 32 32 32 32 30 27 27 27 26 25 27 26 23 19 18 18 17 14 13 14 15 16 16 16 15 13 13 15 16 16 16 16 14 14 16 18 18 17 17 17 17 17 17 18 18 18 19 19 20 20 21 21 21 21 20 20 20 20 19 19 19 19 19 19 18 18 17 17 16 16 15 15 15 15 15 15 15 15 16 16 16 16
29 31 30 30 31 33 33 32 31 31 29 27 27 28 28 26 24 21 20 18 17 16 16 16 16 16 15 16 16 14 13 14 14 15 16 15 14 14 16 18 18 18 18 18 17 17 17 17 17 18 19 19 20 20 21 21 21 21 21 21 21 20 19 19 20 20 20 19 19 19 18 18 18 17 17 17 17 17 17 17 17 17 17 17 17 17
28 29 29 30 31 33 34 33 32 33 31 28 29 29 26 23 23 22 20 17 16 18 19 18 18 18 15 15 15 14 15 15 14 14 14 13 13 15 16 17 18 19 19 18 18 18 17 17 17 18 18 19 20 20 21 21 21 21 21 21 20 20 20 20 20 20 20 20 20 20 20 19 19 19 19 19 18 18 18 18 19 19 18 18 18 18
28 28 28 29 30 31 31 33 34 34 33 31 30 29 26 24 24 24 22 19 18 18 18 18 19 19 19 17 14 14 16 16 15 14 13 12 13 14 16 17 19 19 19 18 18 17 17 17 17 17 18 19 20 20 20 20 20 20 21 21 21 20 20 20 20 20 21 21 21 21 21 21 21 20 20 20 20 19 19 20 20 20 19 19 19 19
28 28 28 27 28 27 29 34 37 36 33 31 30 29 28 26 25 25 24 22 21 20 19 18 18 19 20 18 16 16 16 16 15 13 12 13 14 14 15 17 18 18 19 18 17 17 17 17 17 18 18 19 20 19 19 19 20 20 21 21 21 21 21 20 21 21 21 21 22 22 22 22 22 22 22 21 21 21 21 21 21 21 21 20 20 20
28 29 29 27 26 26 29 34 37 37 35 32 32 32 30 27 25 24 24 22 21 20 19 19 19 20 20 17 16 17 17 16 15 14 13 14 15 16 16 16 17 18 19 18 18 18 17 16 17 18 18 19 19 19 19 19 19 20 20 20 21 21 21 22 22 22 22 22 22 22 23 23 23 23 23 23 23 23 23 23 22 22 22 22 21 21
28 29 30 29 28 28 30 32 33 35 35 34 34 33 32 29 27 25 24 24 22 21 20 19 20 21 20 17 17 18 17 17 17 15 15 15 16 16 15 15 18 19 19 19 19 18 17 16 16 17 18 18 18 18 19 19 19 19 20 20 21 21 22 22 23 23 23 23 23 23 24 24 24 24 24 24 24 24 24 24 24 24 23 23 22 22
28 28 30 31 31 31 30 29 29 32 34 34 34 34 33 32 30 29 26 24 23 23 21 20 20 22 21 18 18 18 16 16 17 16 16 16 16 15 14 15 18 19 19 19 19 18 16 15 16 17 17 18 18 18 19 19 19 19 20 20 21 21 22 23 23 24 24 24 24 24 25 25 25 25 25 25 25 25 25 25 26 25 25 24 23 22
27 28 29 30 30 30 30 28 27 28 30 32 33 33 33 33 34 32 29 26 25 25 23 21 22 23 21 20 19 19 18 17 18 18 18 17 16 15 15 17 18 19 19 19 18 17 15 14 14 15 16 17 17 18 18 19 19 20 20 20 21 21 22 23 23 24 25 25 25 25 26 26 26 26 26 26 26 27 26 26 26 26 27 26 25 24
28 29 29 28 26 28 29 29 30 31 31 32 32 32 32 33 32 31 29 27 27 27 26 23 23 23 21 19 18 20 20 20 20 20 19 18 16 16 17 18 18 19 19 18 17 16 15 15 14 15 15 16 17 18 18 19 20 20 21 21 21 22 22 23 23 24 25 26 26 26 27 27 27 27 27 27 27 27 28 28 27 27 27 27 27 25
29 30 30 29 27 28 29 30 32 33 32 32 32 32 32 32 32 30 28 28 28 27 26 26 24 24 22 20 19 20 20 20 20 20 20 19 18 18 18 19 19 18 18 17 16 16 15 15 15 15 15 16 17 17 18 18 19 20 20 21 21 22 22 23 23 24 25 26 26 27 28 28 28 29 29 29 28 28 29 28 27 27 27 28 28 27
26 29 30 31 31 32 32 32 31 30 30 31 32 33 32 31 31 30 29 30 29 26 27 28 26 24 24 23 21 20 20 20 19 18 19 20 19 19 19 19 19 18 17 17 16 15 15 15 15 15 16 16 17 17 17 18 18 19 20 21 21 21 22 22 23 23 24 25 27 28 28 29 30 30 31 30 29 29 29 28 27 26 26 26 26 26
25 28 30 32 33 33 33 33 31 30 30 31 31 32 32 31 31 31 31 31 29 26 27 28 25 25 25 24 22 21 19 18 18 17 18 19 19 18 18 18 18 17 17 16 16 15 15 15 15 15 16 16 16 16 17 17 18 19 20 21 21 22 22 23 23 24 25 25 26 28 28 29 30 31 32 32 31 31 30 29 27 25 24 24 24 24
25 27 28 29 32 33 32 32 31 31 31 31 31 31 31 30 31 32 33 32 29 29 30 28 25 26 25 24 22 21 19 18 18 18 18 18 18 17 16 17 18 18 18 17 16 16 16 16 16 15 15 15 15 16 16 17 18 19 20 21 21 22 23 23 23 24 25 25 26 27 28 28 29 30 31 32 32 32 31 30 28 25 23 23 23 23
23 26 26 28 31 32 32 31 30 31 32 32 32 32 30 30 31 31 31 30 30 32 31 28 27 28 25 23 23 22 20 19 17 16 16 17 17 17 17 17 18 19 18 18 17 16 16 16 16 15 15 15 16 16 17 18 18 19 20 21 21 22 22 23 24 24 25 25 26 27 27 28 29 29 30 31 32 30 29 29 28 25 23 22 22 22
20 24 24 25 28 30 31 30 31 32 33 34 35 35 33 31 31 31 30 28 28 31 29 27 28 29 26 23 23 21 19 19 18 18 18 18 18 18 18 18 19 19 19 19 18 16 16 16 16 16 16 16 17 17 18 18 19 19 20 21 21 22 23 23 24 25 26 27 27 27 27 28 29 29 29 31 30 29 27 26 25 24 24 23 22 22
17 20 21 22 26 29 29 29 31 31 32 34 36 36 35 34 32 31 30 28 29 30 28 27 29 29 27 24 23 21 20 20 20 20 20 19 18 19 19 20 19 19 19 19 18 17 17 17 18 17 17 17 18 18 18 19 19 20 20 21 22 22 23 24 25 26 27 27 27 28 28 28 28 28 29 29 29 29 26 23 23 23 24 23 22 21
16 16 18 19 24 28 29 29 29 27 28 32 35 35 35 34 33 31 29 29 29 28 27 29 30 28 25 24 24 23 22 22 22 22 21 20 20 21 21 20 19 19 19 19 18 17 17 17 18 18 18 18 18 19 20 20 20 21 21 21 22 23 24 25 26 26 27 27 27 28 28 28 28 27 28 28 29 28 25 22 22 23 23 22 21 20
16 16 17 18 21 25 26 26 25 25 27 31 32 32 33 34 34 32 30 29 29 27 27 28 28 25 24 26 26 25 24 23 23 23 22 21 21 21 20 20 20 20 19 19 18 17 17 17 17 18 19 19 19 19 19 19 20 20 21 21 21 22 23 25 25 26 26 26 26 27 27 27 26 26 26 26 27 26 23 21 22 22 22 22 21 21
18 18 18 17 19 22 22 22 23 25 28 30 30 30 31 32 32 30 28 28 28 27 27 27 27 26 26 27 27 25 22 21 21 20 20 20 21 21 20 21 21 20 19 19 18 17 17 17 18 18 18 18 18 17 17 18 19 19 20 20 20 21 23 24 25 25 25 25 26 25 25 25 25 25 25 25 25 24 22 22 22 22 22 22 21 21
20 19 18 17 18 19 20 22 23 24 25 27 28 27 27 27 27 26 26 26 27 26 26 27 27 26 26 25 24 22 20 19 17 18 18 19 20 20 21 21 21 20 19 19 18 18 17 17 17 16 17 17 17 17 18 18 19 19 19 20 21 22 23 24 25 25 25 25 25 24 24 24 24 23 23 23 23 23 23 23 23 22 22 22 22 22
19 19 18 18 17 18 19 21 22 20 20 23 25 25 24 24 25 25 25 25 25 25 25 25 25 24 23 22 22 21 19 17 17 18 18 18 19 20 20 20 20 19 19 18 17 16 16 16 16 16 16 17 17 17 18 18 18 19 19 20 21 22 23 24 25 25 25 25 25 24 24 24 23 23 22 21 21 21 23 23 22 22 22 21 22 22
19 18 18 17 17 17 18 19 19 18 20 23 24 24 23 23 24 25 23 22 23 23 22 22 22 21 20 19 19 19 17 15 17 18 18 18 18 18 18 18 18 17 17 16 15 15 15 15 16 16 17 17 17 18 18 18 19 19 20 21 22 23 23 24 25 25 26 26 25 24 24 23 23 22 22 21 21 22 22 22 21 21 21 21 22 22
19 17 18 16 16 17 19 18 19 19 20 22 23 22 21 21 23 22 20 20 21 20 19 20 20 19 19 18 17 16 14 15 18 18 17 17 17 17 18 18 17 16 15 15 14 15 15 16 16 17 18 17 17 18 19 20 20 21 22 23 23 23 24 25 26 26 26 25 25 24 23 23 23 22 22 21 22 23 22 21 21 21 22 22 22 22
19 17 17 16 15 17 19 19 18 18 18 20 21 21 21 22 22 21 20 20 20 19 19 19 18 17 18 18 16 14 14 16 17 17 16 17 17 17 18 18 17 16 15 14 14 15 16 16 17 17 18 18 19 20 21 21 21 22 24 24 24 25 26 26 26 25 25 24 24 23 23 23 23 23 22 22 23 23 22 21 21 21 22 22 22 22
21 19 17 16 15 16 18 18 17 18 19 20 20 21 22 22 22 22 23 23 21 20 20 19 17 16 16 16 16 16 16 15 15 15 16 16 16 17 17 17 17 16 15 15 15 16 16 17 17 18 18 20 21 21 21 22 22 23 24 25 25 26 26 26 25 25 24 23 23 23 24 24 24 23 23 22 22 22 22 21 21 21 21 21 21 21
22 21 18 16 14 14 16 17 16 17 18 18 19 20 22 22 23 24 24 22 21 21 19 17 16 16 15 14 15 16 17 16 15 14 15 15 15 15 16 17 17 17 16 16 16 17 17 18 18 19 20 21 21 21 22 22 23 24 24 25 26 26 26 25 24 24 23 23 24 24 24 24 24 24 23 23 22 22 22 22 22 21 21 20 20 20
21 20 18 16 14 14 15 15 15 17 18 16 17 19 20 21 23 23 22 21 21 20 18 17 17 17 16 15 16 16 17 17 16 16 16 16 15 15 16 17 17 17 18 18 18 18 18 18 19 19 20 21 21 21 22 23 23 24 25 26 26 26 25 24 23 23 23 23 23 23 24 24 24 24 23 23 22 22 23 23 22 22 22 21 21 21
22 20 19 18 15 13 13 14 15 17 17 16 16 17 18 19 20 20 20 20 20 18 17 17 16 15 16 16 16 16 16 16 15 15 15 15 15 15 16 17 17 18 18 18 19 19 19 19 19 20 20 22 22 23 24 25 25 25 25 26 25 24 24 23 23 23 22 22 22 22 23 24 24 23 23 23 22 23 23 23 23 23 22 21 21 21
25 23 22 20 18 15 14 14 16 16 16 15 15 15 15 15 15 16 17 17 17 17 17 16 15 15 15 15 15 15 15 14 14 13 13 14 15 15 16 17 17 18 18 18 19 19 20 20 21 22 23 23 24 25 27 27 26 26 25 25 24 24 23 23 22 22 21 21 21 22 22 22 23 23 23 23 23 23 22 22 21 21 21 20 21 22
24 25 23 22 21 19 15 14 15 15 14 14 14 15 14 14 13 14 14 14 14 15 15 14 14 14 14 14 14 14 14 14 14 13 14 14 14 15 15 16 17 17 18 19 19 20 21 23 24 24 25 25 26 27 28 28 26 25 25 24 24 23 22 21 21 20 20 20 20 21 21 21 22 22 22 22 22 21 21 20 20 21 22 23 24 25
21 22 23 24 23 21 18 15 15 16 16 15 15 15 14 14 14 15 14 13 13 14 13 13 13 13 13 13 14 14 14 14 14 14 15 15 15 16 17 18 20 20 21 22 22 23 24 25 26 26 27 27 28 28 27 26 25 24 24 23 23 22 21 20 19 19 19 20 20 20 20 21 21 21 21 21 21 20 21 21 22 23 24 25 26 26
21 21 22 24 24 23 21 19 17 15 16 16 15 16 15 14 15 15 14 14 14 14 14 13 13 12 12 12 12 13 14 15 15 16 16 17 17 18 20 21 22 23 24 24 25 25 26 26 26 27 27 27 27 27 26 24 24 23 23 22 22 21 20 19 19 18 19 19 20 20 21 21 22 22 21 21 21 22 22 23 24 25 26 26 26 26
21 21 22 23 23 22 23 23 20 17 16 16 16 15 15 15 15 15 14 14 14 14 13 14 14 14 14 14 14 14 15 16 18 18 19 20 21 22 23 23 23 24 25 25 25 25 25 25 25 25 25 25 25 25 24 23 23 23 23 22 22 21 20 19 18 18 18 19 20 20 21 22 22 22 21 21 21 22 23 23 24 25 26 26 26 26
20 21 21 22 25 25 25 26 25 22 20 20 19 17 16 16 15 14 14 14 14 14 14 14 14 14 15 15 16 16 16 17 18 19 20 21 22 23 23 23 23 23 24 24 24 24 24 24 24 24 24 24 24 24 24 23 23 23 22 22 21 20 19 19 18 18 18 19 19 20 20 21 22 22 21 21 22 22 23 23 24 25 25 25 25 26
20 21 21 22 23 23 23 24 23 22 21 21 20 19 18 16 15 14 14 14 14 15 15 15 15 15 15 16 16 17 16 17 17 18 19 20 21 22 22 22 22 22 22 22 22 23 23 23 23 23 23 23 23 23 23 22 22 22 21 21 20 19 19 18 18 18 18 18 18 19 19 20 21 21 21 22 22 23 23 23 23 23 24 24 24 25
Wind_Direction
209 212 213 211 209 206 205 204 202 199 194 192 194 196 196 199 208 207 205 202 191 195 207 205 211 216 207 206 204 196 193 198 200 196 196 195 197 200 201 204 207 209 211 211 210 210 210 211 211 211 212 212 212 213 212 213 213 213 213 216 219 221 223 225 228 231 233 235 238 244 250 255 259 263 266 269 271 273 274 275 276 279 283 286 288 285
211 214 215 212 210 207 207 207 201 197 195 193 194 197 199 206 214 213 209 209 202 206 216 211 213 224 221 218 214 204 202 213 214 206 206 204 203 205 207 210 213 215 215 213 213 213 213 213 213 213 215 215 216 216 215 215 215 214 215 218 221 224 225 226 227 230 234 237 240 244 249 255 261 265 268 272 275 277 277 277 277 280 283 285 287 285
215 217 215 212 210 207 208 207 202 201 202 200 199 198 202 210 216 218 214 209 208 217 224 218 220 233 233 227 226 220 220 226 222 217 215 210 209 211 213 214 216 218 218 218 217 215 215 215 215 215 216 217 217 217 217 216 216 216 218 220 223 226 226 227 228 231 235 239 241 244 251 257 264 268 270 274 277 278 279 279 278 280 282 283 284 285
216 219 214 210 208 205 208 208 203 206 210 207 206 204 206 209 212 220 220 214 214 221 224 219 228 240 234 231 235 231 231 236 232 230 225 217 216 217 218 219 218 219 220 221 221 219 217 217 216 217 217 217 217 217 217 216 216 217 219 221 223 225 226 227 228 230 233 235 239 244 251 258 264 268 271 275 276 275 277 278 279 280 281 281 283 287
217 219 210 206 208 207 208 209 205 208 216 216 212 209 208 207 211 219 218 218 224 231 228 222 237 247 234 229 237 235 235 238 236 234 230 226 225 223 223 223 222 222 222 223 223 222 220 219 218 218 218 217 217 218 218 218 218 219 221 221 223 225 226 227 228 228 229 230 234 239 247 254 260 264 267 270 272 272 272 276 280 280 280 281 284 288
219 218 209 206 210 209 209 211 209 209 216 221 218 213 209 205 209 213 207 210 220 231 233 226 235 248 239 233 236 236 235 237 237 235 232 230 228 227 226 225 224 225 225 224 223 223 222 222 221 220 219 219 219 220 220 221 221 222 223 223 224 226 228 229 228 228 229 231 233 236 241 247 252 256 260 263 267 271 273 277 281 280 280 282 286 292
217 214 210 209 210 210 211 212 213 210 212 221 219 213 210 206 207 210 208 210 218 228 233 229 231 247 250 241 238 238 238 239 239 238 235 231 229 229 228 226 226 225 225 224 223 222 221 221 221 221 221 220 221 222 222 222 223 224 226 226 226 228 230 230 229 229 231 234 236 238 242 247 252 256 260 264 269 272 277 281 282 283 283 284 288 294
214 211 212 212 211 212 213 214 214 209 209 220 218 210 208 210 212 213 215 222 227 231 235 231 232 246 253 248 243 237 239 243 242 241 239 234 231 231 229 227 226 226 226 224 223 222 221 220 220 221 222 222 223 224 224 224 225 225 227 228 229 230 231 231 231 232 233 236 239 242 246 251 254 258 263 267 270 273 279 281 281 284 287 286 289 294
215 212 213 212 212 215 215 214 211 208 213 220 216 210 211 213 218 219 222 230 233 231 234 233 231 240 249 251 250 238 237 243 241 240 239 234 231 231 230 228 227 229 228 225 224 224 223 223 221 221 222 223 224 225 225 226 227 227 228 228 229 230 232 233 233 234 237 240 243 246 249 252 257 262 265 269 271 273 277 280 280 283 286 288 291 295
218 215 213 212 214 217 216 215 210 208 216 217 211 212 217 221 224 225 227 232 233 228 231 232 229 234 245 248 247 239 238 240 239 239 239 235 233 232 231 230 229 229 230 227 226 226 227 226 224 223 223 224 226 226 226 227 228 228 228 228 229 231 233 234 235 237 239 242 245 248 250 254 259 263 266 269 271 272 275 277 278 281 285 290 294 297
222 218 214 215 216 216 215 216 212 211 213 212 210 214 220 227 230 232 235 231 230 233 235 233 229 232 244 247 241 239 238 236 238 241 239 237 237 235 233 232 230 230 230 229 228 229 230 230 228 226 225 226 227 227 228 228 229 229 229 229 230 233 234 236 237 238 240 243 246 249 251 254 258 262 266 268 268 270 272 273 275 280 286 292 297 300
224 219 216 218 217 213 213 216 217 216 214 212 215 216 220 229 232 234 237 230 229 239 241 237 231 232 240 242 241 242 242 239 238 238 237 236 235 232 231 232 232 231 231 231 231 232 233 232 230 228 227 228 227 228 228 229 230 230 231 231 232 234 236 236 237 238 240 243 246 248 250 254 258 262 265 266 267 268 270 272 275 280 286 292 297 300
224 221 219 220 219 214 212 215 218 219 217 213 215 216 218 227 230 230 233 232 233 240 243 237 229 233 240 242 244 247 248 246 241 237 236 235 233 230 229 231 233 232 232 232 233 233 234 232 229 226 226 227 227 228 229 229 231 232 233 233 234 236 236 237 239 239 241 243 245 247 249 254 259 262 265 266 267 268 271 274 276 279 283 289 293 297
225 225 221 219 221 216 212 214 217 218 217 214 215 215 217 221 226 232 236 238 240 244 248 238 228 236 244 246 246 245 244 242 238 236 237 241 240 234 232 233 234 233 231 231 232 232 233 230 228 227 227 227 228 229 230 231 232 233 235 236 236 237 237 239 240 240 242 243 245 246 249 253 258 261 265 267 268 269 271 274 275 278 281 285 290 294
223 225 221 218 220 217 215 216 216 216 217 218 218 218 221 222 224 232 235 235 239 244 245 235 231 233 236 246 249 243 243 241 239 241 244 249 248 240 237 236 235 234 230 229 230 230 232 231 230 231 231 231 231 232 232 233 234 235 237 237 237 238 239 239 240 241 242 243 244 246 250 254 258 261 265 268 270 271 272 274 276 278 280 283 287 292
223 227 224 222 222 218 217 219 216 216 220 222 220 221 226 226 226 235 237 234 236 241 239 233 237 240 241 255 259 252 253 247 241 245 246 246 243 236 234 232 232 234 230 227 228 228 229 230 231 232 233 234 234 235 235 235 235 236 238 238 239 239 239 239 240 241 242 243 245 247 251 255 258 261 264 267 269 271 273 276 277 278 281 284 287 290
224 229 227 224 224 220 218 218 217 218 221 222 222 224 229 227 227 234 240 240 238 241 243 236 241 249 251 258 258 253 255 249 241 241 240 240 234 227 227 227 228 230 227 226 227 227 228 229 231 233 233 234 236 236 237 237 237 237 238 239 239 239 239 239 239 240 242 243 245 248 252 256 258 260 262 264 266 270 273 276 277 279 281 283 286 288
225 230 229 224 225 224 220 219 222 222 220 222 224 226 228 229 230 232 236 242 240 242 246 240 239 244 244 252 259 254 249 247 245 241 237 233 227 224 225 225 225 227 226 226 227 229 230 231 232 233 234 235 236 236 237 236 237 237 238 238 238 238 238 238 239 240 242 244 247 250 253 256 258 260 261 263 265 268 272 274 276 277 279 282 284 285
225 230 232 225 224 224 220 220 224 224 223 225 226 225 224 225 229 230 231 236 238 241 248 247 245 244 240 246 256 251 244 244 244 240 233 228 225 226 227 225 226 227 226 225 226 229 231 233 235 234 235 237 237 238 238 237 237 236 237 238 237 238 238 239 241 242 244 247 250 252 254 256 259 260 261 263 265 268 270 272 274 275 276 279 282 283
225 228 230 226 224 223 219 219 222 222 222 225 224 224 225 225 226 229 230 233 235 239 244 248 249 246 243 244 246 244 241 240 239 239 238 234 230 231 231 227 225 224 223 223 225 229 232 235 236 235 236 237 237 238 238 238 237 237 237 238 239 240 241 242 242 243 246 249 251 253 255 257 259 260 262 263 265 268 270 271 273 273 274 276 279 281
226 226 227 226 224 222 220 221 221 219 219 221 222 223 225 226 226 230 233 232 233 237 240 244 248 247 246 244 240 240 240 238 240 244 248 244 238 237 235 229 223 221 222 223 225 230 235 237 238 236 236 238 238 237 237 238 238 238 240 241 241 242 243 243 244 245 247 249 252 254 256 259 260 261 262 264 265 268 271 271 272 272 272 274 277 278
225 226 226 225 223 223 224 224 222 219 218 220 223 224 224 225 225 229 235 235 234 238 239 241 247 250 248 244 242 243 244 245 247 248 251 248 242 240 237 229 224 221 223 224 227 233 236 238 237 234 235 237 238 237 236 237 238 240 241 242 243 244 245 246 247 247 248 250 253 255 257 259 261 262 263 263 265 268 271 272 271 271 271 273 276 276
224 226 226 225 225 225 226 225 222 220 219 221 225 226 224 225 225 226 232 235 236 240 241 242 248 251 249 246 246 248 249 250 251 250 252 250 244 240 235 229 224 222 223 226 230 234 237 237 236 234 234 236 236 236 236 238 240 242 243 244 245 246 247 248 249 250 251 252 255 257 258 259 261 262 262 264 266 268 271 272 271 270 269 271 273 273
224 225 224 226 229 229 229 228 224 220 218 220 225 225 223 226 226 228 232 235 236 238 238 242 248 250 251 251 251 250 250 252 251 248 248 249 247 241 235 230 225 223 225 227 230 235 237 236 234 233 233 234 235 237 238 240 242 243 245 246 247 248 249 250 253 254 255 256 258 259 259 259 261 262 263 265 266 267 269 271 272 270 268 268 270 269
223 224 222 222 225 226 227 227 225 223 220 221 223 223 222 224 225 229 233 235 238 238 234 237 244 247 251 254 254 250 248 251 254 251 249 249 247 242 236 231 226 224 226 227 230 233 234 234 234 233 233 233 235 238 239 241 243 244 246 248 249 251 252 254 256 258 259 260 261 262 261 260 260 262 263 265 266 267 268 270 270 271 269 267 267 266
224 224 221 220 220 221 221 221 221 222 222 224 224 222 222 222 221 226 229 231 236 239 234 235 240 246 252 256 257 252 247 250 255 252 248 246 245 242 235 229 226 226 228 228 229 232 233 234 235 234 234 236 237 240 241 242 244 246 248 250 253 255 256 257 259 260 261 263 263 263 262 261 261 262 263 264 265 267 268 269 269 269 269 268 267 265
225 226 224 222 222 223 223 223 222 220 221 224 225 224 223 222 220 223 227 229 233 236 237 238 240 245 251 253 255 253 247 247 250 248 244 242 242 239 233 227 227 229 230 229 230 233 235 235 235 235 235 237 239 241 243 244 247 248 250 253 255 257 258 259 260 261 262 264 264 264 263 262 263 263 263 264 266 267 267 267 267 268 270 271 268 264
224 227 226 225 225 226 225 225 223 221 222 224 224 224 224 223 221 222 227 231 231 233 239 243 241 243 248 249 249 249 245 244 244 242 240 239 237 234 230 227 228 230 230 230 231 234 235 234 235 235 235 237 239 242 244 247 249 250 253 255 257 258 260 261 261 262 264 266 266 265 265 265 265 265 263 263 265 267 266 265 265 266 268 272 269 263
223 227 227 226 228 229 227 226 222 222 225 225 223 223 222 222 221 224 229 231 230 233 240 242 239 241 246 247 244 242 239 237 236 234 234 235 234 231 228 227 230 232 232 232 233 235 235 235 235 236 238 241 242 244 246 249 251 254 257 259 260 261 262 262 262 263 265 266 267 267 267 267 268 268 266 265 266 266 265 263 262 262 267 273 270 263
225 229 228 226 229 231 229 227 224 223 227 227 225 224 222 222 223 226 231 232 231 236 240 239 237 240 244 242 239 240 239 238 238 237 236 235 232 229 228 231 233 234 234 233 234 236 236 236 236 238 243 247 248 250 252 253 255 259 262 264 264 264 264 264 263 264 265 267 268 268 268 268 269 270 268 268 269 268 267 264 258 258 267 274 271 264
227 231 230 227 230 232 229 228 226 224 227 229 229 228 226 226 227 229 232 233 234 238 241 238 237 241 244 240 239 242 242 241 242 241 238 236 233 230 231 234 236 236 235 233 234 236 238 237 238 241 245 250 253 256 258 260 262 265 268 269 268 268 267 265 265 266 267 268 269 269 269 269 270 270 269 270 272 271 269 264 255 256 266 271 269 264
229 231 232 229 232 234 229 226 227 226 228 231 231 230 228 228 229 231 232 232 233 237 239 238 238 241 242 239 240 244 242 240 242 241 238 238 236 233 233 236 237 236 234 232 233 236 238 238 240 242 245 250 255 259 263 266 268 270 271 272 271 271 269 267 266 268 268 270 270 269 269 269 270 271 270 270 272 270 266 259 253 256 265 267 266 264
228 231 235 233 235 236 230 226 226 225 227 231 230 228 228 229 229 231 232 232 233 234 235 237 238 241 240 236 238 243 242 242 243 241 238 237 237 236 237 238 237 234 232 233 235 237 239 241 242 243 245 250 255 259 264 267 269 271 272 273 274 273 271 269 269 270 271 271 271 270 271 271 270 272 271 271 273 270 261 255 255 259 263 263 262 264
232 234 240 239 238 237 233 226 224 225 227 230 229 226 226 227 227 229 231 232 233 234 237 240 242 242 239 235 236 240 243 244 244 242 240 239 237 237 237 236 234 234 234 235 237 239 241 243 245 245 247 251 255 259 264 267 270 273 275 276 277 276 274 273 272 272 273 273 273 272 272 272 272 273 273 273 274 267 260 260 261 261 262 261 261 264
235 236 242 244 242 239 233 223 222 227 230 231 231 228 226 226 225 226 231 234 234 236 239 241 242 240 239 238 239 241 244 246 246 244 243 241 238 235 234 233 233 234 235 236 238 241 244 244 246 247 248 252 255 259 264 268 272 275 277 279 280 280 279 277 275 275 275 276 275 274 272 272 274 273 273 275 272 264 262 267 265 261 260 260 261 266
231 234 240 243 241 238 229 220 222 230 232 230 229 227 226 225 221 220 227 233 235 235 235 237 239 239 238 238 238 238 238 239 242 244 243 242 240 237 234 232 232 233 235 238 240 242 243 243 243 245 249 254 257 262 266 270 272 275 278 281 284 284 284 282 279 278 278 277 276 274 272 272 273 272 272 274 272 266 268 270 265 260 260 258 262 269
228 230 238 243 241 233 227 224 225 230 229 224 223 223 221 220 219 219 224 230 233 233 231 232 235 234 233 233 233 232 232 234 240 245 245 242 240 238 235 232 231 232 234 237 239 240 241 242 244 249 254 257 260 265 270 272 273 275 280 284 286 287 287 285 283 281 280 278 275 273 271 272 272 272 272 271 269 270 271 268 262 260 259 259 264 270
228 227 231 240 242 233 226 224 223 225 224 221 220 220 217 216 218 218 219 223 227 227 224 223 225 225 225 227 228 226 227 232 239 244 246 243 237 233 231 230 229 230 231 233 236 239 243 247 250 254 257 259 264 270 274 275 276 278 281 285 287 288 288 287 285 284 282 278 275 273 272 272 272 271 270 270 271 274 272 267 262 261 260 262 267 271
229 229 228 236 244 236 224 221 221 222 222 220 219 218 217 215 215 213 211 214 220 222 218 215 219 222 220 219 221 224 228 233 238 244 247 240 231 225 224 224 224 226 227 231 237 241 245 249 253 256 260 263 268 273 275 277 277 278 281 285 287 287 287 287 287 286 283 279 276 274 273 272 270 269 268 269 274 277 273 267 264 263 262 265 269 271
230 234 232 235 244 238 225 220 223 223 220 218 217 219 220 216 210 207 209 212 218 224 221 215 219 225 221 216 220 229 233 233 237 243 242 232 225 222 222 221 221 224 229 236 243 247 250 255 259 263 266 269 273 275 277 277 278 281 284 287 287 287 287 288 288 287 285 281 277 275 274 272 270 268 267 269 274 276 272 268 267 265 265 268 271 271
229 231 229 229 239 239 225 218 223 224 219 217 218 220 220 215 210 211 215 217 220 225 223 217 220 229 229 226 228 232 233 231 232 233 232 227 223 222 222 222 223 227 233 241 248 254 259 264 267 270 272 274 276 277 278 279 282 285 287 288 288 288 288 289 289 287 284 280 278 276 274 273 271 269 268 271 274 274 270 266 265 265 267 272 272 270
225 224 225 226 235 238 224 215 219 219 215 217 221 219 215 213 215 219 221 221 221 222 222 221 224 228 232 232 228 227 228 229 228 226 226 224 222 223 225 227 229 233 238 244 252 259 264 267 271 274 275 276 277 277 279 282 285 287 288 288 289 290 290 289 288 286 283 280 278 276 274 273 272 270 271 272 272 270 267 265 262 263 268 271 270 271
218 217 220 221 227 231 221 214 213 212 214 221 223 217 214 215 219 222 223 223 222 219 220 225 228 228 227 227 225 223 224 226 228 229 230 228 226 229 233 234 235 238 243 249 256 261 264 267 270 273 275 275 276 278 281 284 286 287 287 288 290 290 290 288 287 285 283 280 278 276 275 274 273 272 274 273 269 265 265 264 260 262 267 269 270 274
217 215 216 217 219 222 219 216 214 213 218 223 216 212 216 219 218 218 219 220 220 218 218 222 224 221 217 217 217 214 214 219 224 227 228 227 228 231 234 236 238 242 247 253 257 260 262 266 270 273 276 277 277 279 282 285 286 287 287 288 289 289 288 287 286 284 282 279 278 277 276 276 274 274 275 273 267 263 262 262 260 261 265 269 272 275
224 220 219 220 220 219 219 220 217 215 220 221 211 206 210 211 210 211 212 212 215 218 218 216 215 212 209 209 208 208 211 216 218 219 220 223 226 231 235 238 242 245 250 255 258 260 264 269 272 275 278 279 280 281 283 284 284 285 285 286 287 287 286 286 285 283 280 278 277 277 276 275 274 274 274 273 268 262 261 261 259 259 264 270 274 277
229 223 222 225 223 219 218 220 220 218 218 219 212 203 199 199 202 202 201 203 209 213 214 212 210 210 209 207 205 209 215 218 217 219 223 226 231 237 241 246 249 252 256 259 260 264 268 272 274 276 277 279 281 282 283 283 282 282 282 283 284 285 283 283 282 281 279 278 276 276 275 274 273 273 273 272 267 262 259 257 257 260 267 273 277 279
228 225 226 226 223 220 218 218 221 220 216 215 212 204 198 196 197 194 192 197 201 200 201 203 204 206 208 208 208 212 219 221 223 228 233 235 239 245 250 254 258 260 263 263 264 266 269 272 274 276 277 278 279 280 282 281 279 279 279 280 281 281 280 279 279 278 279 278 276 275 273 272 272 272 271 269 266 262 260 259 261 265 271 276 278 279
228 229 228 225 224 224 220 216 214 212 211 212 211 206 202 200 200 198 197 200 201 199 200 204 205 206 208 212 217 221 225 229 231 234 239 243 248 253 257 260 262 264 266 266 266 267 269 272 274 275 276 277 277 278 279 279 277 277 277 278 278 278 277 276 276 277 278 278 276 275 273 272 271 270 268 267 267 267 265 265 266 269 274 277 279 278
228 228 226 222 222 222 218 215 210 205 206 210 209 207 205 203 202 205 205 206 206 207 208 212 215 217 220 225 230 234 236 240 242 244 247 252 257 261 263 264 264 266 267 267 268 269 270 272 273 274 275 276 276 277 277 277 276 276 276 276 276 275 274 274 274 276 277 276 275 274 273 272 270 269 268 268 268 269 270 271 272 275 277 280 280 280
224 223 222 219 219 219 218 218 216 214 215 217 215 211 208 203 200 204 208 212 216 219 221 223 226 229 232 235 238 242 247 250 253 254 255 258 261 263 264 265 267 269 269 269 269 270 271 272 273 273 273 274 275 276 276 275 275 275 274 274 274 273 273 272 272 273 273 273 272 272 272 271 269 268 267 267 268 270 272 274 277 278 280 282 283 284
221 219 218 218 220 221 217 216 218 220 218 217 215 215 214 211 207 208 211 215 220 225 229 232 234 236 239 240 244 249 252 255 258 259 260 261 263 263 263 266 270 272 272 272 272 271 272 273 273 273 273 274 274 275 274 273 272 271 271 272 272 273 272 272 271 271 270 271 271 270 272 273 270 267 268 269 269 270 272 274 277 280 283 284 286 286